This demonstration page uses our WeatherBlox Daily Observations layout. Learn more.

Left ArrowRight Arrow

44.31136, -96.79839

Hourly Observations for August 19, 2018

Temp ( °F °C ) Dew Point ( °F °C ) Humidity (%) Winds ( mph kmh ) Pressure ( in mb ) Visibility ( mi km ) Precip ( " mm )
9:56 am 09:56 Sunny 70 21.1 66 18.9 87 87 SSE 8 13 29.85 1011 10 16 0.00 0.00
10:11 am 10:11 Mostly Cloudy 70 21 66 19 88 88 SSE 7 11 29.85 1011 10 16 0.00 0.00
10:20 am 10:20 Cloudy 70 21 66 19 88 88 S 5 7 29.85 1011 10 16 0.00 0.00
10:56 am 10:56 Cloudy 70 21.1 66 18.9 87 87 ESE 3 6 29.85 1011 10 16 0.00 0.00
11:56 am 11:56 Cloudy 70 21.1 66 18.9 87 87 N 13 20 29.85 1011 10 16 0.00 0.00
12:33 pm 12:33 Cloudy with Nearby Thunderstorms 70 21 64 18 83 83 ENE 12 19 29.85 1011 10 16 0.00 0.00
12:41 pm 12:41 Cloudy with Nearby Thunderstorms 68 20 64 18 88 88 NE 10 17 29.85 1011 10 16 0.00 0.00
12:47 pm 12:47 Cloudy with Nearby Thunderstorms 68 20 64 18 88 88 ENE 13 20 29.85 1011 10 16 0.00 0.00
12:56 pm 12:56 Cloudy with Nearby Thunderstorms 68 20 65 18.3 90 90 ENE 13 20 29.85 1011 4 6 0.10 2.54
1:06 pm 13:06 Cloudy with Heavy Rain 66 19 66 19 100 100 ENE 10 17 29.85 1011 3 4 0.24 6.10
1:13 pm 13:13 Cloudy with Strong Thunderstorms 66 19 66 19 100 100 ENE 10 17 29.85 1011 3 5 0.33 8.38
1:27 pm 13:27 Cloudy with Thunderstorms 68 20 66 19 94 94 ENE 13 20 29.85 1011 4 6 0.39 9.91
1:49 pm 13:49 Mostly Cloudy 70 21 66 19 88 88 ENE 12 19 29.85 1011 7 11 0.39 9.91
1:56 pm 13:56 Mostly Cloudy 70 21.1 68 20 93 93 E 12 19 29.83 1010 7 11 0.39 9.91
2:56 pm 14:56 Mostly Cloudy 73 22.8 69 20.6 87 87 ESE 7 11 29.83 1010 10 16 0.00 0.00
3:29 pm 15:29 Mostly Cloudy 73 23 70 21 89 89 SE 5 7 29.85 1011 10 16 0.00 0.00
3:56 pm 15:56 Cloudy 74 23.3 69 20.6 85 85 N 3 6 29.85 1011 10 16 0.00 0.00
4:18 pm 16:18 Cloudy 70 21 66 19 88 88 NNW 15 24 29.85 1011 10 16 0.00 0.00
4:56 pm 16:56 Mostly Cloudy 69 20.6 67 19.4 93 93 NNW 9 15 29.83 1010 10 16 0.00 0.00
5:44 pm 17:44 Cloudy with Light Rain 70 21 66 19 88 88 NNE 8 13 29.85 1011 9 14 0.07 1.78
5:56 pm 17:56 Cloudy with Light Rain 69 20.6 67 19.4 93 93 N 7 11 29.85 1011 10 16 0.07 1.78
6:08 pm 18:08 Cloudy with Light Rain 70 21 66 19 88 88 NNE 6 9 29.85 1011 10 16 0.00 0.03
6:29 pm 18:29 Cloudy with Light Rain 68 20 66 19 94 94 N 12 19 29.85 1011 8 13 0.05 1.27
6:56 pm 18:56 Cloudy with Light Rain 67 19.4 65 18.3 93 93 NNE 8 13 29.88 1012 9 14 0.06 1.52
7:56 pm 19:56 Cloudy 65 18.3 64 17.8 97 97 NNE 10 17 29.91 1013 10 16 0.01 0.25
8:56 pm 20:56 Cloudy 64 17.8 62 16.7 93 93 N 13 20 29.91 1013 10 16 0.00 0.00
9:18 pm 21:18 Cloudy 64 18 63 17 94 94 N 8 13 29.94 1014 10 16 0.00 0.00
9:56 pm 21:56 Cloudy 64 17.8 62 16.7 93 93 N 10 17 30.00 1016 10 16 0.00 0.03
10:56 pm 22:56 Cloudy with Light Rain 64 17.8 62 16.7 93 93 N 6 9 30.01 1016 10 16 0.01 0.25
11:28 pm 23:28 Cloudy with Light Rain 64 18 63 17 94 94 NNE 6 9 29.97 1015 10 16 0.01 0.25
11:56 pm 23:56 Cloudy 64 17.8 62 16.7 93 93 NNE 8 13 29.99 1016 10 16 0.01 0.25

Powered by AerisWeather